When you browse on this site, cookies collect data to enhance your experience and personalize the content and advertising you see.
Visit our Privacy Policy to learn more. By continuing to use the site, you agree to this use of cookies and data.
  • In Romania
  • List of Countries
  • For 7 days
  • Water Temperature
  • Weather Map
  • Weather Widgets
  • user-avatar
    Login

    Hourly Weather Lillehammer

    Today, 28 May, Thursday

    Time Temperature Precipitation Wind Pressure Humidity
    00:00 +4°C° 0 mm 1 mps 727 mmHg 72%
    01:00 +4°C° 0 mm 1 mps 727 mmHg 76%
    02:00 +4°C° 0 mm 1 mps 727 mmHg 77%
    03:00 +4°C° 0 mm 1 mps 727 mmHg 77%
    04:00 +3°C° 0 mm 0 mps 727 mmHg 78%
    05:00 +4°C° 0 mm 0 mps 727 mmHg 72%
    06:00 +7°C° 0 mm 1 mps 728 mmHg 66%
    07:00 +8°C° 0 mm 1 mps 728 mmHg 60%
    08:00 +10°C° 0 mm 1 mps 728 mmHg 54%
    09:00 +11°C° 0 mm 1 mps 728 mmHg 49%
    10:00 +13°C° 0 mm 2 mps 728 mmHg 43%
    11:00 +14°C° 0 mm 1 mps 728 mmHg 39%
    12:00 +15°C° 0 mm 1 mps 728 mmHg 36%
    13:00 +16°C° 0 mm 1 mps 727 mmHg 32%
    14:00 +16°C° 0 mm 1 mps 727 mmHg 30%
    15:00 +18°C° 0 mm 1 mps 727 mmHg 29%
    16:00 +18°C° 0 mm 1 mps 727 mmHg 28%
    17:00 +18°C° 0 mm 1 mps 727 mmHg 31%
    18:00 +16°C° 0 mm 1 mps 727 mmHg 34%
    19:00 +15°C° 0 mm 1 mps 727 mmHg 38%
    20:00 +13°C° 0 mm 1 mps 727 mmHg 45%
    21:00 +10°C° 0 mm 2 mps 727 mmHg 53%
    22:00 +7°C° 0 mm 2 mps 727 mmHg 61%
    23:00 +7°C° 0 mm 2 mps 727 mmHg 64%

    Tomorrow, 29 May, Friday

    Time Temperature Precipitation Wind Pressure Humidity
    00:00 +7°C° 0 mm 1 mps 727 mmHg 67%
    01:00 +6°C° 0 mm 1 mps 727 mmHg 70%
    02:00 +6°C° 0 mm 1 mps 727 mmHg 72%
    03:00 +6°C° 0 mm 1 mps 727 mmHg 74%
    04:00 +5°C° 0 mm 1 mps 727 mmHg 76%
    05:00 +7°C° 0 mm 1 mps 727 mmHg 69%
    06:00 +9°C° 0 mm 1 mps 727 mmHg 63%
    07:00 +10°C° 0 mm 0 mps 728 mmHg 56%
    08:00 +12°C° 0 mm 0 mps 727 mmHg 51%
    09:00 +14°C° 0 mm 0 mps 727 mmHg 46%
    10:00 +15°C° 0 mm 0 mps 727 mmHg 41%
    11:00 +17°C° 0 mm 0 mps 727 mmHg 37%
    12:00 +18°C° 0 mm 0 mps 727 mmHg 34%
    13:00 +19°C° 0 mm 0 mps 727 mmHg 31%
    14:00 +19°C° 0 mm 0 mps 727 mmHg 30%
    15:00 +19°C° 0 mm 0 mps 727 mmHg 29%
    16:00 +21°C° 0 mm 1 mps 726 mmHg 29%
    17:00 +20°C° 0 mm 1 mps 726 mmHg 33%
    18:00 +20°C° 0 mm 1 mps 726 mmHg 37%
    19:00 +19°C° 0 mm 1 mps 726 mmHg 40%
    20:00 +16°C° 0 mm 1 mps 726 mmHg 47%
    21:00 +13°C° 0 mm 1 mps 726 mmHg 53%
    22:00 +11°C° 0 mm 1 mps 726 mmHg 60%
    23:00 +10°C° 0 mm 1 mps 727 mmHg 62%

    Day after tomorrow, 30 May, Saturday

    Time Temperature Precipitation Wind Pressure Humidity
    00:00 +10°C° 0 mm 1 mps 727 mmHg 64%
    01:00 +9°C° 0 mm 1 mps 727 mmHg 65%
    02:00 +8°C° 0 mm 0 mps 727 mmHg 67%
    03:00 +8°C° 0 mm 0 mps 727 mmHg 69%
    04:00 +7°C° 0 mm 0 mps 727 mmHg 71%
    05:00 +9°C° 0 mm 0 mps 728 mmHg 64%
    06:00 +11°C° 0 mm 0 mps 728 mmHg 57%
    07:00 +14°C° 0 mm 0 mps 728 mmHg 50%
    08:00 +15°C° 0 mm 0 mps 729 mmHg 46%
    09:00 +17°C° 0 mm 0 mps 729 mmHg 42%
    10:00 +19°C° 0 mm 0 mps 729 mmHg 38%
    11:00 +21°C° 0 mm 1 mps 729 mmHg 37%
    12:00 +22°C° 0 mm 1 mps 728 mmHg 36%
    13:00 +23°C° 0 mm 2 mps 728 mmHg 34%
    14:00 +23°C° 0 mm 2 mps 728 mmHg 35%
    15:00 +23°C° 0 mm 2 mps 728 mmHg 35%
    16:00 +22°C° 0 mm 3 mps 728 mmHg 35%
    17:00 +21°C° 0 mm 2 mps 728 mmHg 38%
    18:00 +21°C° 0 mm 2 mps 728 mmHg 42%
    19:00 +20°C° 0 mm 2 mps 728 mmHg 45%
    20:00 +17°C° 0 mm 2 mps 728 mmHg 53%
    21:00 +15°C° 0 mm 1 mps 728 mmHg 60%
    22:00 +12°C° 0 mm 1 mps 728 mmHg 68%
    23:00 +12°C° 0 mm 1 mps 728 mmHg 71%

    31 May, Sunday

    Time Temperature Precipitation Wind Pressure Humidity
    00:00 +11°C° 0 mm 1 mps 728 mmHg 75%
    01:00 +9°C° 0 mm 0 mps 729 mmHg 78%
    02:00 +9°C° 0 mm 0 mps 729 mmHg 78%
    03:00 +9°C° 0 mm 0 mps 729 mmHg 79%
    04:00 +8°C° 0 mm 0 mps 729 mmHg 79%
    05:00 +11°C° 0 mm 0 mps 729 mmHg 71%
    06:00 +13°C° 0 mm 0 mps 729 mmHg 62%
    07:00 +15°C° 0 mm 0 mps 729 mmHg 54%
    08:00 +18°C° 0 mm 1 mps 729 mmHg 50%
    09:00 +19°C° 0 mm 1 mps 729 mmHg 45%
    10:00 +19°C° 0 mm 2 mps 729 mmHg 41%
    11:00 +20°C° 0 mm 2 mps 729 mmHg 39%
    12:00 +20°C° 0 mm 2 mps 728 mmHg 37%
    13:00 +21°C° 0 mm 2 mps 728 mmHg 36%
    14:00 +21°C° 0 mm 2 mps 728 mmHg 36%
    15:00 +21°C° 0 mm 2 mps 727 mmHg 36%
    16:00 +21°C° 0 mm 2 mps 727 mmHg 36%
    17:00 +20°C° 0 mm 2 mps 727 mmHg 40%
    18:00 +20°C° 0 mm 2 mps 727 mmHg 43%
    19:00 +19°C° 0 mm 2 mps 726 mmHg 47%
    20:00 +18°C° 0 mm 1 mps 726 mmHg 51%
    21:00 +15°C° 0 mm 1 mps 726 mmHg 55%
    22:00 +12°C° 0 mm 0 mps 726 mmHg 59%
    23:00 +12°C° 0 mm 0 mps 726 mmHg 61%

    1 June, Monday

    Time Temperature Precipitation Wind Pressure Humidity
    00:00 +11°C° 0 mm 0 mps 726 mmHg 64%
    01:00 +10°C° 0 mm 0 mps 726 mmHg 66%
    02:00 +10°C° 0 mm 0 mps 725 mmHg 67%
    03:00 +10°C° 0 mm 0 mps 725 mmHg 69%
    04:00 +11°C° 0 mm 1 mps 725 mmHg 70%
    05:00 +13°C° 0 mm 1 mps 725 mmHg 66%
    06:00 +14°C° 0 mm 1 mps 725 mmHg 63%
    07:00 +15°C° 0 mm 1 mps 725 mmHg 60%
    08:00 +16°C° 0 mm 2 mps 725 mmHg 55%
    09:00 +18°C° 0 mm 3 mps 725 mmHg 51%
    10:00 +19°C° 0 mm 3 mps 725 mmHg 46%
    11:00 +20°C° 0 mm 4 mps 725 mmHg 44%
    12:00 +21°C° 0 mm 4 mps 724 mmHg 43%
    13:00 +21°C° 0 mm 4 mps 724 mmHg 41%
    14:00 +21°C° 0 mm 4 mps 724 mmHg 41%
    15:00 +21°C° 0 mm 4 mps 723 mmHg 42%
    16:00 +21°C° 0 mm 4 mps 723 mmHg 42%
    17:00 +21°C° 0 mm 4 mps 723 mmHg 45%
    18:00 +20°C° 0 mm 4 mps 722 mmHg 48%
    19:00 +19°C° 0 mm 4 mps 722 mmHg 50%
    20:00 +17°C° 0 mm 3 mps 722 mmHg 57%
    21:00 +14°C° 0 mm 2 mps 721 mmHg 64%
    22:00 +12°C° 0 mm 2 mps 721 mmHg 70%
    23:00 +11°C° 0 mm 1 mps 721 mmHg 71%

    2 June, Tuesday

    Time Temperature Precipitation Wind Pressure Humidity
    00:00 +10°C° 0 mm 1 mps 721 mmHg 72%
    01:00 +10°C° 0 mm 1 mps 721 mmHg 73%
    02:00 +9°C° 0 mm 1 mps 720 mmHg 74%
    03:00 +9°C° 0 mm 1 mps 720 mmHg 74%
    04:00 +9°C° 0 mm 1 mps 720 mmHg 75%
    05:00 +10°C° 0 mm 2 mps 720 mmHg 69%
    06:00 +12°C° 0 mm 2 mps 720 mmHg 62%
    07:00 +13°C° 0 mm 3 mps 720 mmHg 56%
    08:00 +14°C° 0 mm 3 mps 720 mmHg 52%
    09:00 +15°C° 0 mm 4 mps 720 mmHg 48%
    10:00 +17°C° 0 mm 4 mps 720 mmHg 44%
    11:00 +17°C° 0 mm 5 mps 719 mmHg 43%
    12:00 +19°C° 0 mm 5 mps 719 mmHg 41%
    13:00 +19°C° 0 mm 6 mps 719 mmHg 39%
    14:00 +19°C° 0 mm 6 mps 719 mmHg 42%
    15:00 +19°C° 0 mm 6 mps 719 mmHg 45%
    16:00 +19°C° 0 mm 6 mps 718 mmHg 48%
    17:00 +17°C° 0 mm 5 mps 718 mmHg 51%
    18:00 +16°C° 0 mm 5 mps 718 mmHg 54%
    19:00 +17°C° 0 mm 4 mps 718 mmHg 56%
    20:00 +14°C° 0 mm 4 mps 718 mmHg 64%
    21:00 +12°C° 0 mm 3 mps 718 mmHg 71%
    22:00 +11°C° 0 mm 3 mps 717 mmHg 79%
    23:00 +10°C° 0 mm 2 mps 717 mmHg 83%
    Show more